Regional Weather Roundup
Issued by NWS State College, PA

Home | Current Version | Previous Version | Graphics & Text | Print | Product List | Glossary On
Versions: 1 2 3 4 5 6 7 8 9 10 11 12 13 14 15 16 17 18 19 20 21 22 23 24 25 26 27 28 29 30 31 32 33 34 35 36 37 38 39 40 41 42 43 44 45 46 47 48 49 50
000
ASUS41 KCTP 250310
RWRCTP

REGIONAL WEATHER ROUNDUP
NATIONAL WEATHER SERVICE STATE COLLEGE PA
1000 PM EST SAT FEB 24 2018

Note: "fair" indicates few or no clouds below 12,000 feet with no
significant weather and/or obstructions to visibility.

* = STATION THAT DOES NOT REPORT PRECIPITATION /E.G. RAIN...SNOW...ETC/
    THUNDER OR FOG.

PAZ002>004-007>009-013>016-020>023-029>032-250400-
WESTERN PENNSYLVANIA

CITY           SKY/WX    TMP DP  RH WIND       PRES   REMARKS
ERIE           FAIR      39  33  79 NE7       29.96F
MEADVILLE      FAIR      43  41  93 VRB6      29.94F
FRANKLIN*      LGT RAIN  43  40  89 SE17G25   29.97F
NEW CASTLE     LGT RAIN  47  45  93 SE6       29.97F
BEAVER COUNTY  NOT AVBL
BUTLER*        LGT RAIN  45  43  93 E12       29.97F
PITTSBURGH INT LGT RAIN  46  45  96 SE9       29.96F FOG
PITTSBURGH     LGT RAIN  47  44  90 SE9       29.96F
INDIANA*       CLOUDY    46  45  93 SE13G24   30.06F FOG
LATROBE        CLOUDY    48  46  93 E9        30.00F
WASHINGTON CO* LGT RAIN  48  46  93 NE3       29.97F
$$

PAZ004>006-010>012-017>019-024>028-033>037-041-042-045-046-049>053-250400-
CENTRAL PENNSYLVANIA

CITY           SKY/WX    TMP DP  RH WIND       PRES   REMARKS
BRADFORD       CLOUDY    41  39  93 SE12      30.03F
DUBOIS         CLOUDY    42  38  85 SE16G25   30.00F
CLEARFIELD     CLOUDY    42  41  96 E6        30.09F
JOHNSTOWN      LGT RAIN  42  40  92 SE14      30.03F
ALTOONA        CLOUDY    44  42  93 SE8       30.11F
STATE COLLEGE  CLOUDY    41  41 100 CALM      30.12F FOG
WILLIAMSPORT   CLOUDY    43  42  97 E9        30.14F
SELINSGROVE    CLOUDY    43  42  97 N3        30.16F FOG
FT INDIANTOWN  CLOUDY    44  44 100 NE3       30.16S
CAPITAL CITY   CLOUDY    46  44  93 E5        30.15F
HARRISBURG     CLOUDY    46  43  89 E5        30.15F
YORK           CLOUDY    46  45  96 E5        30.15F
$$

PAZ038>040-043-044-047-048-054-055-060>062-067>071-250400-
EASTERN PENNSYLVANIA

CITY           SKY/WX    TMP DP  RH WIND       PRES   REMARKS
SCRANTON       CLOUDY    41  39  93 NE6       30.16F
MOUNT POCONO   FOG       37  37 100 E5        30.14F VSB 1/2
ALLENTOWN      CLOUDY    44  41  89 E8        30.18F
QUAKERTOWN*    CLOUDY    45  45 100 NE3       30.19R
READING        CLOUDY    45  45 100 NE3       30.17S
LANCASTER      CLOUDY    46  43  89 E7        30.17S
COATESVILLE    CLOUDY    45  43  93 CALM      30.18S
POTTSTOWN      LGT RAIN  44  43  96 E5        30.20R FOG
BLUE BELL      CLOUDY    45  43  93 CALM      30.21R
DOYLESTOWN     CLOUDY    44  43  96 CALM      30.19R
WILLOW GROVE   NOT AVBL
NORTH PHILA    CLOUDY    49  41  74 NE8       30.21R
PHILADELPHIA   LGT RAIN  47  44  90 NE8       30.19R
$$




USA.gov is the U.S. government's official web portal to all federal, state and local government web resources and services.